When you browse on this site, cookies collect data to enhance your experience and personalize the content and advertising you see.
Visit our Privacy Policy to learn more. By continuing to use the site, you agree to this use of cookies and data.
  • în România
  • Lista ţărilor
  • Pe 7 zile
  • Temperatura apei
  • Hartă satelitară
  • Meteo pe hartă
  • Widget-uri
  • user-avatar
    Intrare

    Meteo pe oră la Fargo

    Astăzi, 26 Aprilie, Vineri

    Timp Temperatura Precipitaţii Vânt Presiune Umiditate
    00:00 +6°C° 0 mm 4 m/s 739 mmHg 51%
    01:00 +7°C° 0 mm 3 m/s 739 mmHg 53%
    02:00 +5°C° 0 mm 3 m/s 739 mmHg 56%
    03:00 +6°C° 0 mm 2 m/s 739 mmHg 58%
    04:00 +5°C° 0 mm 2 m/s 740 mmHg 59%
    05:00 +5°C° 0 mm 2 m/s 740 mmHg 61%
    06:00 +5°C° 0 mm 2 m/s 740 mmHg 62%
    07:00 +7°C° 0 mm 2 m/s 740 mmHg 56%
    08:00 +8°C° 0 mm 2 m/s 740 mmHg 50%
    09:00 +10°C° 0 mm 2 m/s 739 mmHg 43%
    10:00 +11°C° 0 mm 3 m/s 739 mmHg 38%
    11:00 +12°C° 0 mm 4 m/s 739 mmHg 32%
    12:00 +13°C° 0 mm 4 m/s 739 mmHg 27%
    13:00 +13°C° 0 mm 4 m/s 738 mmHg 25%
    14:00 +14°C° 0 mm 3 m/s 738 mmHg 24%
    15:00 +14°C° 0 mm 3 m/s 737 mmHg 22%
    16:00 +15°C° 0 mm 2 m/s 737 mmHg 23%
    17:00 +15°C° 0 mm 2 m/s 736 mmHg 23%
    18:00 +14°C° 0 mm 1 m/s 736 mmHg 23%
    19:00 +13°C° 0 mm 2 m/s 736 mmHg 27%
    20:00 +11°C° 0 mm 3 m/s 736 mmHg 31%
    21:00 +10°C° 0 mm 3 m/s 736 mmHg 36%
    22:00 +10°C° 0 mm 4 m/s 735 mmHg 37%
    23:00 +10°C° 0 mm 4 m/s 735 mmHg 39%

    Mâine, 27 Aprilie, Sâmbătă

    Timp Temperatura Precipitaţii Vânt Presiune Umiditate
    00:00 +8°C° 0 mm 4 m/s 735 mmHg 41%
    01:00 +8°C° 0 mm 4 m/s 735 mmHg 43%
    02:00 +8°C° 0 mm 3 m/s 735 mmHg 45%
    03:00 +8°C° 0 mm 2 m/s 735 mmHg 47%
    04:00 +8°C° 0 mm 3 m/s 735 mmHg 48%
    05:00 +7°C° 0 mm 3 m/s 735 mmHg 49%
    06:00 +7°C° 0 mm 3 m/s 736 mmHg 50%
    07:00 +8°C° 0 mm 3 m/s 736 mmHg 47%
    08:00 +7°C° 0 mm 4 m/s 736 mmHg 43%
    09:00 +8°C° 0 mm 4 m/s 736 mmHg 40%
    10:00 +10°C° 0 mm 4 m/s 737 mmHg 34%
    11:00 +12°C° 0 mm 5 m/s 737 mmHg 28%
    12:00 +13°C° 0 mm 5 m/s 737 mmHg 22%
    13:00 +13°C° 0 mm 5 m/s 737 mmHg 21%
    14:00 +13°C° 0 mm 5 m/s 736 mmHg 21%
    15:00 +14°C° 0 mm 4 m/s 736 mmHg 20%
    16:00 +13°C° 0 mm 4 m/s 736 mmHg 21%
    17:00 +13°C° 0 mm 4 m/s 736 mmHg 22%
    18:00 +12°C° 0 mm 4 m/s 736 mmHg 22%
    19:00 +11°C° 0 mm 4 m/s 736 mmHg 26%
    20:00 +10°C° 0 mm 3 m/s 737 mmHg 29%
    21:00 +8°C° 0 mm 3 m/s 737 mmHg 33%
    22:00 +8°C° 0 mm 3 m/s 737 mmHg 32%
    23:00 +7°C° 0 mm 3 m/s 737 mmHg 32%

    Poimâine, 28 Aprilie, Duminică

    Timp Temperatura Precipitaţii Vânt Presiune Umiditate
    00:00 +5°C° 0 mm 3 m/s 737 mmHg 31%
    01:00 +5°C° 0 mm 3 m/s 737 mmHg 33%
    02:00 +4°C° 0 mm 3 m/s 737 mmHg 34%
    03:00 +4°C° 0 mm 3 m/s 737 mmHg 35%
    04:00 +4°C° 0 mm 3 m/s 737 mmHg 36%
    05:00 +4°C° 0 mm 3 m/s 737 mmHg 37%
    06:00 +4°C° 0 mm 4 m/s 738 mmHg 39%
    07:00 +5°C° 0.3 mm 4 m/s 737 mmHg 44%
    08:00 +5°C° 0.3 mm 4 m/s 737 mmHg 49%
    09:00 +6°C° 0.3 mm 5 m/s 737 mmHg 54%
    10:00 +5°C° 0.6 mm 6 m/s 737 mmHg 56%
    11:00 +5°C° 0.6 mm 7 m/s 737 mmHg 58%
    12:00 +5°C° 0.6 mm 8 m/s 736 mmHg 60%
    13:00 +5°C° 1.7 mm 7 m/s 736 mmHg 63%
    14:00 +5°C° 1.7 mm 7 m/s 735 mmHg 65%
    15:00 +4°C° 1.7 mm 6 m/s 735 mmHg 68%
    16:00 +4°C° 1.2 mm 6 m/s 735 mmHg 70%
    17:00 +4°C° 1.2 mm 6 m/s 735 mmHg 71%
    18:00 +3°C° 1.2 mm 6 m/s 734 mmHg 73%
    19:00 +3°C° 0.8 mm 6 m/s 735 mmHg 75%
    20:00 +3°C° 0.8 mm 6 m/s 735 mmHg 78%
    21:00 +3°C° 0.8 mm 5 m/s 735 mmHg 81%
    22:00 +3°C° 0.3 mm 5 m/s 735 mmHg 82%
    23:00 +4°C° 0.3 mm 4 m/s 735 mmHg 84%

    29 Aprilie, Luni

    Timp Temperatura Precipitaţii Vânt Presiune Umiditate
    00:00 +3°C° 0.3 mm 4 m/s 735 mmHg 85%
    01:00 +3°C° 0 mm 4 m/s 735 mmHg 86%
    02:00 +3°C° 0 mm 4 m/s 735 mmHg 87%
    03:00 +3°C° 0 mm 4 m/s 735 mmHg 88%
    04:00 +1°C° 0 mm 4 m/s 736 mmHg 88%
    05:00 +1°C° 0 mm 5 m/s 736 mmHg 89%
    06:00 +1°C° 0 mm 5 m/s 737 mmHg 89%
    07:00 +2°C° 0 mm 6 m/s 738 mmHg 84%
    08:00 +3°C° 0 mm 6 m/s 738 mmHg 79%
    09:00 +4°C° 0 mm 7 m/s 739 mmHg 74%
    10:00 +5°C° 0 mm 6 m/s 740 mmHg 68%
    11:00 +7°C° 0 mm 6 m/s 740 mmHg 62%
    12:00 +8°C° 0 mm 6 m/s 740 mmHg 57%
    13:00 +8°C° 0 mm 6 m/s 740 mmHg 53%
    14:00 +9°C° 0 mm 6 m/s 740 mmHg 49%
    15:00 +10°C° 0 mm 6 m/s 740 mmHg 45%
    16:00 +10°C° 0 mm 5 m/s 741 mmHg 43%
    17:00 +9°C° 0 mm 5 m/s 741 mmHg 41%
    18:00 +10°C° 0 mm 4 m/s 741 mmHg 39%
    19:00 +8°C° 0 mm 4 m/s 742 mmHg 44%
    20:00 +7°C° 0 mm 3 m/s 742 mmHg 48%
    21:00 +5°C° 0 mm 3 m/s 743 mmHg 52%
    22:00 +4°C° 0 mm 3 m/s 743 mmHg 53%
    23:00 +4°C° 0 mm 3 m/s 743 mmHg 54%

    30 Aprilie, Marţi

    Timp Temperatura Precipitaţii Vânt Presiune Umiditate
    00:00 +3°C° 0 mm 3 m/s 743 mmHg 55%
    01:00 +3°C° 0 mm 3 m/s 743 mmHg 57%
    02:00 +2°C° 0 mm 3 m/s 743 mmHg 58%
    03:00 +1°C° 0 mm 3 m/s 743 mmHg 60%
    04:00 +1°C° 0 mm 3 m/s 744 mmHg 63%
    05:00 +1°C° 0 mm 3 m/s 744 mmHg 66%
    06:00 +2°C° 0 mm 2 m/s 744 mmHg 68%
    07:00 +3°C° 0 mm 3 m/s 744 mmHg 62%
    08:00 +5°C° 0 mm 3 m/s 744 mmHg 56%
    09:00 +8°C° 0 mm 3 m/s 745 mmHg 49%
    10:00 +9°C° 0 mm 3 m/s 744 mmHg 44%
    11:00 +10°C° 0 mm 3 m/s 744 mmHg 38%
    12:00 +11°C° 0 mm 3 m/s 744 mmHg 32%
    13:00 +11°C° 0 mm 3 m/s 743 mmHg 31%
    14:00 +12°C° 0 mm 3 m/s 743 mmHg 30%
    15:00 +12°C° 0 mm 3 m/s 742 mmHg 30%
    16:00 +12°C° 0 mm 3 m/s 742 mmHg 32%
    17:00 +12°C° 0 mm 3 m/s 742 mmHg 34%
    18:00 +12°C° 0 mm 3 m/s 742 mmHg 36%
    19:00 +10°C° 0 mm 3 m/s 742 mmHg 43%
    20:00 +9°C° 0 mm 3 m/s 743 mmHg 49%
    21:00 +8°C° 0 mm 3 m/s 743 mmHg 55%
    22:00 +7°C° 0 mm 3 m/s 743 mmHg 61%
    23:00 +7°C° 0 mm 3 m/s 743 mmHg 67%

    1 Mai, Miercuri

    Timp Temperatura Precipitaţii Vânt Presiune Umiditate
    00:00 +5°C° 0 mm 3 m/s 742 mmHg 73%
    01:00 +4°C° 0 mm 3 m/s 743 mmHg 75%
    02:00 +5°C° 0 mm 2 m/s 743 mmHg 77%
    03:00 +4°C° 0 mm 2 m/s 743 mmHg 80%
    04:00 +4°C° 0 mm 2 m/s 743 mmHg 76%
    05:00 +3°C° 0 mm 3 m/s 743 mmHg 73%
    06:00 +2°C° 0 mm 3 m/s 743 mmHg 70%
    07:00 +4°C° 0 mm 3 m/s 743 mmHg 64%
    08:00 +5°C° 0 mm 3 m/s 743 mmHg 58%
    09:00 +6°C° 0 mm 4 m/s 743 mmHg 52%
    10:00 +8°C° 0 mm 3 m/s 743 mmHg 48%
    11:00 +9°C° 0 mm 3 m/s 743 mmHg 45%
    12:00 +10°C° 0 mm 3 m/s 743 mmHg 41%
    13:00 +11°C° 0 mm 3 m/s 743 mmHg 40%
    14:00 +11°C° 0 mm 3 m/s 743 mmHg 39%
    15:00 +12°C° 0 mm 3 m/s 743 mmHg 37%
    16:00 +12°C° 0 mm 3 m/s 743 mmHg 41%
    17:00 +12°C° 0 mm 2 m/s 743 mmHg 45%
    18:00 +12°C° 0 mm 2 m/s 743 mmHg 49%
    19:00 +10°C° 0.1 mm 2 m/s 743 mmHg 56%
    20:00 +9°C° 0.1 mm 3 m/s 743 mmHg 62%
    21:00 +9°C° 0.1 mm 3 m/s 743 mmHg 69%
    22:00 +8°C° 0.4 mm 3 m/s 743 mmHg 74%
    23:00 +8°C° 0.4 mm 3 m/s 742 mmHg 79%
    Arată mai mult